Flag for Malaysia Weather past 2 weeks in Kuching, Malaysia

Now
91 °F

Broken clouds.


Feels Like: 99 °F
Forecast: 77 / 92 °F
Wind: 7 mph from Southeast

Location: Kuching Airport

Current Time: Aug 2, 2014 at 4:00:00 PM

Latest Report: Aug 2, 2014 at 3:30 PM


Visibility: 4 mi

Pressure: 29.74 "Hg

Humidity: 52%

Dew point: 72 °F

Location of KuchingLocation

Historic Weather in Kuching — Graph

°F

Kuching temperature yesterday

Maximum temperature yesterday: 93 °F (at 2:30 PM)
Minimum temperature yesterday: 73 °F (at 6:00 PM)
Average temperature yesterday: 82 °F

Past Weeks' High & Low Weather Summary

 TemperatureHumidityPressure
High99 °F (Jul 26, 4:00 PM)100% (Jul 24, 9:00 PM)29.89 "Hg (Jul 24, 9:00 PM)
Low73 °F (Aug 1, 6:00 PM)32% (Jul 27, 1:30 PM)29.71 "Hg (Jul 18, 3:00 PM)
Average84 °F74%29.80 "Hg
* Reported Jul 18 2:00 PM — Aug 2 2:30 PM, Kuching, Weather by CustomWeather, © 2014

Note: Actual official high and low records may vary slightly from our data, if they occured in-between our weather recording intervals... More about our weather records

Advertising

Kuching weather history for previous 24 hours

 ConditionsComfort  
Time TempWeatherWind HumidityBarometerVisibility
2:30 PM
Aug 2
91 °FBroken clouds.8 mph56%29.74 "Hg4 mi
2:00 PM91 °FBroken clouds.9 mph59%29.77 "Hg4 mi
1:30 PM90 °FBroken clouds.9 mph59%29.80 "Hg4 mi
1:00 PM90 °FBroken clouds.8 mph59%29.80 "Hg4 mi
12:30 PM90 °FBroken clouds.10 mph55%29.80 "Hg4 mi
12:00 PM88 °FBroken clouds.8 mph62%29.83 "Hg3 mi
11:30 AM86 °FPartly sunny.9 mph66%29.83 "Hg3 mi
11:00 AM84 °FPartly sunny.2 mph70%29.83 "Hg3 mi
10:30 AM82 °FPartly sunny.2 mph74%29.83 "Hg3 mi
10:00 AM81 °FPartly sunny.3 mph79%29.83 "Hg3 mi
9:30 AM81 °FPartly sunny.3 mph79%29.83 "Hg2 mi
9:00 AM79 °FPartly sunny.2 mph84%29.86 "Hg2 mi
8:30 AM79 °FPartly sunny.1 mph84%29.83 "Hg2 mi
8:00 AM77 °FPartly sunny.No wind89%29.83 "Hg3 mi
7:30 AM77 °FPartly sunny.2 mph89%29.83 "Hg3 mi
7:00 AM77 °FBroken clouds.5 mph83%29.80 "Hg2 mi
6:30 AM77 °FPartly cloudy.5 mph83%29.80 "Hg2 mi
6:00 AM77 °FPartly cloudy.3 mph89%29.80 "Hg2 mi
5:30 AM77 °FPartly cloudy.3 mph89%29.80 "Hg2 mi
5:00 AM77 °FPartly cloudy.5 mph89%29.80 "Hg2 mi
4:30 AM77 °FPartly cloudy.3 mph89%29.80 "Hg2 mi
4:00 AM77 °FPartly cloudy.3 mph89%29.80 "Hg2 mi
3:30 AM77 °FPartly cloudy.2 mph89%29.80 "Hg2 mi
3:00 AM77 °FPartly cloudy.2 mph89%29.80 "Hg2 mi
2:30 AM77 °FPartly cloudy.3 mph89%29.80 "Hg2 mi
2:00 AM79 °FPartly cloudy.2 mph89%29.80 "Hg2 mi
1:30 AM77 °FPartly cloudy.3 mph89%29.83 "Hg2 mi
1:00 AM77 °FPartly cloudy.2 mph94%29.83 "Hg2 mi
12:30 AM79 °FPartly cloudy.2 mph89%29.83 "Hg2 mi
12:00 AM79 °FPartly cloudy.2 mph84%29.83 "Hg4 mi
11:30 PM
Aug 1
79 °FPartly cloudy.2 mph84%29.83 "Hg4 mi
11:00 PM79 °FPartly cloudy.1 mph84%29.83 "Hg5 mi
10:30 PM79 °FPartly cloudy.2 mph84%29.83 "Hg5 mi
10:00 PM79 °FLight rain. Partly cloudy.3 mph84%29.83 "Hg5 mi
9:30 PM79 °FLight rain. Partly cloudy.5 mph84%29.83 "HgN/A
9:00 PM77 °FPartly cloudy.2 mph89%29.80 "HgN/A
8:30 PM77 °FLight rain. Partly cloudy.2 mph89%29.80 "HgN/A
8:00 PM77 °FLight rain. Partly cloudy.3 mph89%29.80 "HgN/A
7:30 PM77 °FLight rain. Partly cloudy.2 mph89%29.77 "Hg5 mi
7:00 PM77 °FLight rain. Partly cloudy.7 mph89%29.77 "Hg4 mi
6:30 PM75 °FThunderstorms. Broken clouds.8 mph89%29.77 "Hg4 mi
6:00 PM73 °FThunderstorms. Broken clouds.8 mph83%29.74 "Hg3 mi
5:30 PM77 °FThunderstorms. Broken clouds.5 mph74%29.74 "Hg2 mi
5:00 PM79 °FThunderstorms. Broken clouds.12 mph70%29.74 "Hg2 mi
4:30 PM90 °FThunderstorms. Broken clouds.6 mph63%29.71 "Hg3 mi
4:00 PM91 °FBroken clouds.7 mph59%29.71 "Hg3 mi
Weather by CustomWeather, © 2014

See weather overviewHow to use our weather pages